IRIDIUM 97 [B] (27450 NORAD) Tracking and Keplerian Element Data

This shows tracking and keplerian element data for the satellite.

Feedback or suggestion? Click here.




ElementValue
Catalog27450
NameIRIDIUM 97 [B]
Epoch Orbit84652
Epoch Day195.91205726
Epoch Year2018
RAAN154.8115
Inclination86.4252
Eccentricity0.0002202
Argument of Perigee83.1721
Mean Anonmoly276.9727
Mean Motion14.38599329
Decay Rate1E-07
L11 27450U 02031A 18195.91205726 .00000010 00000-0 -33280-5 0 9993
L22 27450 86.4252 154.8115 0002202 83.1721 276.9727 14.38599329846528

Live tracking and technical data element details for IRIDIUM 97 [B] (NORAD 27450). IRIDIUM 97 [B] can be tracked NOW for your location showing map with azimuth and elevation plus other details from your city location.

Track the satellite on the map from your city or location and see movement details for azimuth, elevation, latitude, longitude, range, height, and movement on the map or in text.







IsCatalogInMostPopularTable: catalog: 27450, numindb: 38
Update: records affected: 1



GetName: 27450 IRIDIUM 97 [B]

Hit Count: updated at: Mon, 16 Jul 2018 14:45:20 GMT